Location: Newark
(49.8969°N, 3.3422°E)
Time: 16:03:21
(UTC+00:00)

ISS - Visible Passes

Search period start: 14 December 2019 00:00
Search period end: 24 December 2019 00:00
Orbit: 411 x 421 km, 51.6° (Epoch: 15 December)

Date Brightness Start Highest point End Pass type
(mag) Time Alt. Az. Time Alt. Az. Time Alt. Az.
19 Dec 0.0 06:57:43 10° SSE 06:58:41 11° SE 06:59:41 10° ESE visible
21 Dec -1.1 06:55:15 10° SSW 06:57:57 23° SE 07:00:41 10° E visible
22 Dec -0.7 06:07:30 10° S 06:09:36 16° SE 06:11:42 10° E visible
23 Dec -0.3 05:20:49 10° SE 05:21:16 10° SE 05:21:43 10° SE visible
23 Dec -2.7 06:54:09 10° SW 06:57:21 47° SSE 07:00:34 10° ENE visible
